Regional Weather Roundup
Issued by NWS Spokane, WA

Home | Current Version | Previous Version | Text Only | Print | Product List | Glossary On
Versions: 1 2 3 4 5 6 7 8 9 10 11 12 13 14 15 16 17 18 19 20 21 22 23 24 25 26 27 28 29 30 31 32 33 34 35 36 37 38 39 40 41 42 43 44 45 46 47 48 49 50
000
NZUS01 KOTX 310610
RWROTX
EASTERN WASHINGTON/NORTHERN IDAHO ROUNDUP
NATIONAL WEATHER SERVICE, SPOKANE WA
1100 PM PDT SAT AUG 30 2014

Note: "fair" indicated few or no clouds below 12,000 feet with no
significant weather and/or obstructions to visibility.

...NORTHEAST WASHINGTON AND NORTHERN IDAHO PANHANDLE...

CITY           SKY/WX    TMP DP  RH WIND       PRES   REMARKS
SPOKANE INTL   MOCLDY    58  53  84 SW16      29.84S
SPOKANE DOWNTO MOCLDY    61  52  72 SW5       29.86R
COEUR D ALENE  CLOUDY    61  50  67 SW5       29.86R
DEER PARK      PTCLDY    61  49  64 S10       29.84R
SANDPOINT      PTCLDY    61  43  51 SW7       29.81R

...SOUTHEAST WASHINGTON AND SOUTHERN IDAHO PANHANDLE...

CITY           SKY/WX    TMP DP  RH WIND       PRES   REMARKS
WALLA WALLA    PTCLDY    64  49  57 SW14      29.92R
PULLMAN/MOSCOW MOCLDY    59  49  69 SW8       29.92R
LEWISTON       PTCLDY    65  48  54 S8        29.87R
LOWELL           N/A     59  58  96 CALM      29.92S

...COLUMBIA BASIN...

CITY           SKY/WX    TMP DP  RH WIND       PRES   REMARKS
EPHRATA        MOCLDY    69  47  45 NW10      29.80S
MOSES LAKE     CLOUDY    68  50  52 SW8       29.82R
TRI CITIES     CLEAR     65  55  70 SW10      29.86R
HERMISTON      CLEAR     63  52  67 SW13      29.89R
PENDLETON      MOCLDY    62  47  57 W20       29.92R

...EAST SLOPES CASCADES...

CITY           SKY/WX    TMP DP  RH WIND       PRES   REMARKS
THE DALLES     CLEAR     64  48  56 W14G22    29.95R
YAKIMA         CLEAR     62  46  55 CALM      29.88S
WENATCHEE      PTCLDY    66  47  50 NW9       29.84R
OMAK           CLOUDY    67  40  37 NW5       29.79R

...SOUTHERN BRITISH COLUMBIA...

CITY           SKY/WX    TMP DP  RH WIND       PRES   REMARKS
PENTICTON      MOCLDY    63  45  51 NE5       29.83R
CRANBROOK      PTCLDY    52  43  71 W7        29.81S

...WESTERN MONTANA...

CITY           SKY/WX    TMP DP  RH WIND       PRES   REMARKS
MISSOULA       CLOUDY    60  46  59 NW17G25   29.88R

...NEIGHBORING CITIES...

CITY           SKY/WX    TMP DP  RH WIND       PRES   REMARKS
SEATTLE        CLOUDY    59  56  89 SE13      29.99R
CALGARY        PTCLDY    52  45  76 VRB2      29.75S



USA.gov is the U.S. government's official web portal to all federal, state and local government web resources and services.